Terminal Aerodrome Forecast
Issued by NWS

Home | Current Version | Previous Version | Text Only | Print | Product List | Glossary On
Versions: 1 2 3 4 5 6 7 8 9 10 11 12 13 14 15 16 17 18 19 20 21 22 23 24 25 26 27 28 29 30 31 32 33 34 35 36 37 38 39 40 41 42
000
FTUS43 KGLD 171005 AAA
TAFMCK
TAF AMD
KMCK 171005Z 1710/1806 VRB04KT 3SM BR SCT025
      TEMPO 1710/1713 1SM BR SCT005 BKN025
     FM171300 VRB04KT 4SM BR OVC015
     FM171500 VRB05KT P6SM SCT015
     FM171700 11005KT P6SM SKC=

USA.gov is the U.S. government's official web portal to all federal, state and local government web resources and services.